Location: Rogalle
(42.8890°N, 1.1916°E)
Time: 06:53:31
(UTC+00:00)

IGS 5A - Pass Details

Date: 13 December 2025
Orbit: 551 x 554 km, 97.4° (Epoch: 8 January)

Event Time Altitude Azimuth Distance (km) Brightness Sun altitude
Rises 16:59:40 0° 169° (SSE) 2,722 7.1 -7.0°
Reaches altitude 10° 17:01:47 10° 170° (S) 1,832 6.2 -7.4°
Maximum altitude 17:05:45 82° 256° (WSW) 568 3.5 -8.0°
Drops below altitude 10° 17:09:46 10° 346° (NNW) 1,848 5.9 -8.7°
Sets 17:11:54 0° 347° (NNW) 2,748 6.8 -9.1°
